EW9081 Weather Reports


time (UTC)temp
C
wind
direction
speed
KPH
gust
KPH
rain 1hr
cm
rain 24hr
cm
rain mn
cm
humidity
%
barometer
mb
20260902045317 16 286 0.0 3.2 0.00 0.00 0.00 75 1011.6
20260902044814 16 286 0.0 3.2 0.00 0.00 0.00 74 1011.7
20260902044310 16 286 0.0 0.0 0.00 0.00 0.00 74 1011.6
20260902043811 16 286 0.0 0.0 0.00 0.00 0.00 74 1011.6
20260902043309 16 286 0.0 0.0 0.00 0.00 0.00 74 1011.6
20260902042808 16 286 0.0 0.0 0.00 0.00 0.00 73 1011.6
20260902042310 16 286 0.0 0.0 0.00 0.00 0.00 73 1011.5
20260902041810 16 286 0.0 3.2 0.00 0.00 0.00 72 1011.5
20260902041309 16 286 0.0 3.2 0.00 0.00 0.00 71 1011.6
20260902040809 16 286 0.0 3.2 0.00 0.00 0.00 72 1011.6
20260902040309 16 286 0.0 3.2 0.00 0.00 0.00 72 1011.5
20260902035809 16 286 0.0 3.2 0.00 0.00 0.00 72 1011.6
20260902035308 16 286 0.0 3.2 0.00 0.00 0.00 72 1011.6
20260902034813 16 286 1.6 4.8 0.00 0.00 0.00 72 1011.5
20260902034809 16 286 1.6 3.2 0.00 0.00 0.00 72 1011.5
20260902033809 16 286 0.0 4.8 0.00 0.00 0.00 72 1011.5
20260902033310 16 286 1.6 4.8 0.00 0.00 0.00 72 1011.5
20260902032809 17 286 3.2 6.4 0.00 0.00 0.00 71 1011.6
20260902032423 17 269 1.6 6.4 0.00 0.00 0.00 71 1011.6
20260902032315 17 269 0.0 6.4 0.00 0.00 0.00 71 1011.6
20260902032311 17 297 1.6 6.4 0.00 0.00 0.00 71 1011.6
20260902030810 17 261 0.0 3.2 0.00 0.00 0.00 70 1011.6
20260902030806 17 260 0.0 4.8 0.00 0.00 0.00 70 1011.6
20260902025810 17 302 1.6 4.8 0.00 0.00 0.00 69 1011.5
20260902025805 17 261 1.6 4.8 0.00 0.00 0.00 69 1011.5
20260902024805 17 281 1.6 4.8 0.00 0.00 0.00 69 1011.6
20260902024305 17 294 1.6 6.4 0.00 0.00 0.00 69 1011.5
20260902023804 17 261 1.6 6.4 0.00 0.00 0.00 69 1011.5
20260902023305 17 246 1.6 6.4 0.00 0.00 0.00 69 1011.5
20260902022805 17 213 1.6 9.7 0.00 0.00 0.00 68 1011.5
20260902022310 18 306 3.2 6.4 0.00 0.00 0.00 67 1011.4
20260902022306 17 273 1.6 9.7 0.00 0.00 0.00 68 1011.5
20260902021801 18 292 3.2 6.4 0.00 0.00 0.00 67 1011.4
20260902020800 18 259 3.2 8.0 0.00 0.00 0.00 66 1011.4
20260902020302 18 286 3.2 8.0 0.00 0.00 0.00 64 1011.4
20260902015800 19 282 3.2 8.0 0.00 0.00 0.00 63 1011.3
20260902015305 19 302 3.2 9.7 0.00 0.00 0.00 63 1011.3
20260902014806 19 297 3.2 12.9 0.00 0.00 0.00 62 1011.4
20260902014802 19 280 3.2 9.7 0.00 0.00 0.00 63 1011.3
20260902014415 20 189 3.2 12.9 0.00 0.00 0.00 61 1011.3
20260902013304 20 265 4.8 12.9 0.00 0.00 0.00 60 1011.3
20260902013300 20 200 3.2 12.9 0.00 0.00 0.00 61 1011.3
20260902012308 20 219 4.8 12.9 0.00 0.00 0.00 59 1011.3
20260902012257 20 255 6.4 12.9 0.00 0.00 0.00 60 1011.4
20260902011256 20 158 3.2 12.9 0.00 0.00 0.00 61 1011.2
20260902010802 19 286 3.2 12.9 0.00 0.00 0.00 62 1011.3
20260902010257 18 239 3.2 12.9 0.00 0.00 0.00 65 1011.3
20260902005759 18 248 3.2 11.3 0.00 0.00 0.00 65 1011.3
20260902005257 18 218 3.2 12.9 0.00 0.00 0.00 65 1011.3
20260902004756 18 229 3.2 12.9 0.00 0.00 0.00 65 1011.3
20260902004256 18 251 3.2 12.9 0.00 0.00 0.00 65 1011.3
20260902003757 18 238 4.8 12.9 0.00 0.00 0.00 66 1011.1
20260902003258 18 314 3.2 11.3 0.00 0.00 0.00 65 1011.2
20260902002800 18 266 3.2 9.7 0.00 0.00 0.00 67 1011.3
20260902002756 18 296 3.2 11.3 0.00 0.00 0.00 66 1011.3
20260902001756 18 259 3.2 9.7 0.00 0.00 0.00 69 1011.3
20260902001257 18 283 3.2 8.0 0.00 0.00 0.00 68 1011.3
20260902000756 18 286 3.2 8.0 0.00 0.00 0.00 69 1011.3
20260902000257 17 267 4.8 12.9 0.00 0.00 0.00 69 1011.3
20260901235757 18 270 4.8 12.9 0.00 0.00 0.00 69 1011.3
20260901235307 18 299 4.8 12.9 0.00 0.00 0.00 68 1011.4
20260901235258 18 282 3.2 9.7 0.00 0.00 0.00 68 1011.4
20260901234910 18 233 4.8 12.9 0.00 0.00 0.00 68 1011.4
20260901233758 18 286 3.2 12.9 0.00 0.00 0.00 69 1011.3
20260901233301 18 306 3.2 14.5 0.00 0.00 0.00 70 1011.2
20260901233256 18 291 3.2 12.9 0.00 0.00 0.00 70 1011.2
20260901232258 18 229 4.8 14.5 0.00 0.00 0.00 70 1011.3
20260901231757 18 302 4.8 12.9 0.00 0.00 0.00 71 1011.4
20260901231257 18 289 3.2 12.9 0.00 0.00 0.00 71 1011.4
20260901230756 18 351 4.8 12.9 0.00 0.00 0.00 71 1011.4
20260901230256 18 331 6.4 12.9 0.00 0.00 0.00 71 1011.4
20260901225756 18 305 6.4 17.7 0.00 0.00 0.00 71 1011.4
20260901225255 18 355 4.8 17.7 0.00 0.00 0.00 71 1011.5
20260901224756 17 303 4.8 12.9 0.00 0.00 0.00 72 1011.4
20260901224255 17 313 4.8 14.5 0.00 0.00 0.00 72 1011.4
20260901223755 17 315 4.8 14.5 0.00 0.00 0.00 72 1011.3
20260901223255 17 298 4.8 12.9 0.00 0.00 0.00 73 1011.4
20260901222755 17 306 4.8 12.9 0.00 0.00 0.00 74 1011.5
20260901222253 17 273 4.8 12.9 0.00 0.00 0.00 74 1011.6
20260901221756 17 328 4.8 12.9 0.00 0.00 0.00 74 1011.6
20260901221751 17 321 4.8 12.9 0.00 0.00 0.00 74 1011.6
20260901220751 17 299 4.8 9.7 0.00 0.00 0.00 73 1011.5
20260901220250 18 258 3.2 9.7 0.00 0.00 0.00 72 1011.5
20260901215754 18 300 3.2 9.7 0.00 0.00 0.00 72 1011.3
20260901215750 18 304 3.2 9.7 0.00 0.00 0.00 71 1011.4
20260901214750 18 309 3.2 9.7 0.00 0.00 0.00 70 1011.2
20260901214248 18 257 3.2 9.7 0.00 0.00 0.00 69 1011.2
20260901213753 18 222 0.0 3.2 0.00 0.00 0.00 67 1011.1
20260901213748 18 284 1.6 9.7 0.00 0.00 0.00 68 1011.1
20260901212746 18 229 1.6 3.2 0.00 0.00 0.00 67 1011.0
20260901212246 18 230 1.6 3.2 0.00 0.00 0.00 68 1011.1
20260901211747 18 231 1.6 3.2 0.00 0.00 0.00 68 1011.1
20260901211244 18 232 1.6 6.4 0.00 0.00 0.00 68 1011.1
20260901210746 18 232 1.6 6.4 0.00 0.00 0.00 67 1011.1
20260901210244 18 262 1.6 6.4 0.00 0.00 0.00 67 1011.2
20260901205743 18 263 1.6 6.4 0.00 0.00 0.00 68 1011.1
20260901205245 19 237 1.6 8.0 0.00 0.00 0.00 67 1011.0
20260901204745 19 229 3.2 8.0 0.00 0.00 0.00 67 1011.1
20260901204243 19 201 1.6 6.4 0.00 0.00 0.00 68 1011.1
20260901203745 19 257 1.6 6.4 0.00 0.00 0.00 68 1011.2
20260901203243 19 300 1.6 6.4 0.00 0.00 0.00 69 1011.2
20260901202743 18 242 1.6 4.8 0.00 0.00 0.00 69 1011.2
20260901202242 18 242 1.6 4.8 0.00 0.00 0.00 69 1011.2
20260901201742 18 242 1.6 4.8 0.00 0.00 0.00 69 1011.3
20260901201246 18 247 1.6 6.4 0.00 0.00 0.00 70 1011.3
20260901201242 18 261 1.6 6.4 0.00 0.00 0.00 70 1011.3
20260901200243 18 238 3.2 8.0 0.00 0.00 0.00 69 1011.3
20260901195741 18 302 4.8 8.0 0.00 0.00 0.00 70 1011.4
20260901195240 18 313 3.2 9.7 0.00 0.00 0.00 69 1011.3
20260901194741 19 293 3.2 9.7 0.00 0.00 0.00 69 1011.2
20260901194247 19 199 1.6 8.0 0.00 0.00 0.00 66 1011.4
20260901194240 19 270 1.6 8.0 0.00 0.00 0.00 69 1011.2
20260901193740 19 267 1.6 6.4 0.00 0.00 0.00 69 1011.3
20260901193241 19 295 3.2 8.0 0.00 0.00 0.00 67 1011.3
20260901192854 19 299 1.6 4.8 0.00 0.00 0.00 66 1011.4
20260901192240 19 298 1.6 4.8 0.00 0.00 0.00 66 1011.4
20260901191239 19 297 1.6 3.2 0.00 0.00 0.00 68 1011.4
20260901190743 18 252 0.0 3.2 0.00 0.00 0.00 68 1011.5
20260901190739 19 252 0.0 3.2 0.00 0.00 0.00 68 1011.4
20260901185742 18 254 1.6 3.2 0.00 0.00 0.00 71 1011.5
20260901185738 18 253 0.0 3.2 0.00 0.00 0.00 70 1011.5
20260901184738 18 294 1.6 3.2 0.00 0.00 0.00 70 1011.7
20260901184238 18 5 1.6 4.8 0.00 0.00 0.00 70 1011.7
20260901183739 18 5 1.6 4.8 0.00 0.00 0.00 70 1011.8
20260901183243 18 317 1.6 4.8 0.00 0.00 0.00 70 1011.8
20260901183238 18 29 1.6 4.8 0.00 0.00 0.00 70 1011.7
20260901182238 18 318 1.6 4.8 0.00 0.00 0.00 70 1011.7
20260901181737 18 9 0.0 3.2 0.00 0.00 0.00 70 1011.7
20260901181238 18 104 1.6 8.0 0.00 0.00 0.00 71 1011.6
20260901180738 18 82 3.2 8.0 0.00 0.00 0.00 70 1011.6
20260901180239 18 355 1.6 3.2 0.00 0.00 0.00 71 1011.7
20260901175739 18 342 1.6 4.8 0.00 0.00 0.00 71 1011.6
20260901175238 18 0 1.6 4.8 0.00 0.00 0.00 72 1011.6
20260901174736 18 5 1.6 4.8 0.00 0.00 0.00 72 1011.6
20260901174235 18 22 1.6 3.2 0.00 0.00 0.00 73 1011.6
20260901173735 18 20 1.6 4.8 0.00 0.00 0.00 73 1011.6
20260901173236 18 22 1.6 4.8 0.00 0.00 0.00 73 1011.7
20260901172733 17 350 3.2 4.8 0.00 0.00 0.00 73 1011.7
20260901172235 17 344 3.2 6.4 0.00 0.00 0.00 74 1011.7
20260901171738 18 340 3.2 6.4 0.00 0.00 0.00 72 1011.6
20260901171734 18 351 3.2 6.4 0.00 0.00 0.00 73 1011.6
20260901170740 18 261 1.6 4.8 0.00 0.00 0.00 70 1011.6
20260901170735 18 304 3.2 6.4 0.00 0.00 0.00 71 1011.6
20260901165736 18 169 1.6 6.4 0.00 0.00 0.00 70 1011.5
20260901165731 18 201 1.6 6.4 0.00 0.00 0.00 69 1011.6
20260901164736 17 233 1.6 3.2 0.00 0.00 0.00 76 1011.7
20260901164732 18 163 1.6 3.2 0.00 0.00 0.00 73 1011.6
20260901163731 17 235 0.0 3.2 0.00 0.00 0.00 76 1011.7
20260901163230 17 238 0.0 3.2 0.00 0.00 0.00 76 1011.7
20260901162731 17 238 1.6 3.2 0.00 0.00 0.00 77 1011.8
20260901162231 16 240 1.6 3.2 0.00 0.00 0.00 78 1011.9
20260901161730 16 244 1.6 3.2 0.00 0.00 0.00 79 1011.9
20260901161229 16 245 1.6 3.2 0.00 0.00 0.00 80 1011.9
20260901160727 16 262 0.0 4.8 0.00 0.00 0.00 80 1011.9
20260901160227 16 262 1.6 4.8 0.00 0.00 0.00 81 1011.9
20260901155725 16 257 1.6 6.4 0.00 0.00 0.00 82 1011.9
20260901155225 16 294 3.2 6.4 0.00 0.00 0.00 82 1011.9
20260901154727 16 294 1.6 4.8 0.00 0.00 0.00 82 1012.0
20260901154225 16 293 3.2 4.8 0.00 0.00 0.00 82 1011.9
20260901153730 15 300 3.2 6.4 0.00 0.00 0.00 81 1011.9
20260901153726 16 294 3.2 6.4 0.00 0.00 0.00 82 1012.0
20260901153223 15 294 3.2 6.4 0.00 0.00 0.00 82 1011.9
20260901152228 15 248 1.6 3.2 0.00 0.00 0.00 81 1011.9
20260901152224 15 297 1.6 6.4 0.00 0.00 0.00 81 1011.9
20260901151225 15 237 1.6 3.2 0.00 0.00 0.00 81 1011.9
20260901150725 15 237 1.6 3.2 0.00 0.00 0.00 79 1011.9
20260901150223 15 238 1.6 4.8 0.00 0.00 0.00 78 1011.9
20260901145723 15 241 1.6 4.8 0.00 0.00 0.00 78 1011.8
20260901145224 15 185 1.6 3.2 0.00 0.00 0.00 80 1011.8
20260901144724 15 179 1.6 3.2 0.00 0.00 0.00 81 1011.8
20260901144225 15 179 1.6 3.2 0.00 0.00 0.00 81 1011.8
20260901143723 15 179 1.6 3.2 0.00 0.00 0.00 81 1011.8
20260901143225 15 179 1.6 4.8 0.00 0.00 0.00 81 1011.7
20260901142725 15 179 1.6 4.8 0.00 0.00 0.00 81 1011.7
20260901142224 15 177 1.6 4.8 0.00 0.00 0.00 81 1011.6
20260901141725 15 176 1.6 4.8 0.00 0.00 0.00 81 1011.6
20260901141224 15 180 1.6 3.2 0.00 0.00 0.00 81 1011.5
20260901140724 15 180 0.0 3.2 0.00 0.00 0.00 82 1011.6
20260901140224 15 180 0.0 3.2 0.00 0.00 0.00 82 1011.5
20260901135729 15 184 1.6 3.2 0.00 0.00 0.00 82 1011.5
20260901135725 15 184 1.6 3.2 0.00 0.00 0.00 82 1011.5
20260901134724 15 184 1.6 3.2 0.00 0.00 0.00 82 1011.5
20260901134223 14 184 1.6 3.2 0.00 0.00 0.00 82 1011.4
20260901133723 14 184 3.2 4.8 0.00 0.00 0.00 82 1011.3
20260901133225 14 184 1.6 4.8 0.00 0.00 0.00 82 1011.4
20260901132722 14 188 1.6 4.8 0.00 0.00 0.00 82 1011.4
20260901132221 14 188 1.6 4.8 0.00 0.00 0.00 82 1011.4
20260901131722 14 189 1.6 4.8 0.00 0.00 0.00 83 1011.4
20260901131223 14 196 1.6 3.2 0.00 0.00 0.00 82 1011.4
20260901130718 14 196 1.6 3.2 0.00 0.00 0.00 82 1011.4
20260901130223 14 196 1.6 4.8 0.00 0.00 0.00 82 1011.3
20260901130217 14 196 1.6 3.2 0.00 0.00 0.00 82 1011.4
20260901125830 14 196 1.6 4.8 0.00 0.00 0.00 82 1011.3
20260901124718 15 196 1.6 4.8 0.00 0.00 0.00 81 1011.3
20260901124219 15 196 1.6 4.8 0.00 0.00 0.00 81 1011.3
20260901123717 15 234 0.0 4.8 0.00 0.00 0.00 83 1011.2
20260901123217 15 243 0.0 3.2 0.00 0.00 0.00 83 1011.3
20260901122717 15 243 0.0 3.2 0.00 0.00 0.00 83 1011.3
20260901122217 15 244 0.0 3.2 0.00 0.00 0.00 83 1011.2
20260901121718 15 244 0.0 3.2 0.00 0.00 0.00 83 1011.3
20260901121218 15 244 0.0 3.2 0.00 0.00 0.00 83 1011.3
20260901120717 15 226 0.0 3.2 0.00 0.00 0.00 82 1011.3
20260901120219 15 224 0.0 6.4 0.00 0.00 0.00 83 1011.3
20260901115716 15 224 0.0 6.4 0.00 0.00 0.00 82 1011.3
20260901115216 15 251 0.0 3.2 0.00 0.00 0.00 82 1011.3
20260901114715 15 251 1.6 3.2 0.00 0.00 0.00 82 1011.2
20260901114216 15 252 1.6 3.2 0.00 0.00 0.00 82 1011.1
20260901113715 15 252 1.6 4.8 0.00 0.00 0.00 82 1011.2
20260901113220 15 247 1.6 6.4 0.00 0.00 0.00 82 1011.1
20260901113215 15 252 1.6 6.4 0.00 0.00 0.00 82 1011.2
20260901112215 15 252 0.0 4.8 0.00 0.00 0.00 82 1011.1
20260901111715 15 270 1.6 6.4 0.00 0.00 0.00 82 1011.1
20260901111213 15 241 3.2 9.7 0.00 0.00 0.00 81 1011.0
20260901110715 15 217 3.2 9.7 0.00 0.00 0.00 81 1011.0
20260901110215 15 243 1.6 6.4 0.00 0.00 0.00 81 1011.0
20260901105713 15 282 1.6 6.4 0.00 0.00 0.00 81 1010.9
20260901105212 15 237 1.6 6.4 0.00 0.00 0.00 81 1011.0
20260901104712 15 259 1.6 6.4 0.00 0.00 0.00 81 1011.0
20260901104210 15 248 1.6 6.4 0.00 0.00 0.00 80 1011.0
20260901103712 15 248 3.2 9.7 0.00 0.00 0.00 80 1010.9
20260901103212 15 257 4.8 17.7 0.00 0.00 0.00 80 1011.0
20260901102711 15 290 3.2 17.7 0.00 0.00 0.00 81 1011.0
20260901102211 15 247 1.6 8.0 0.00 0.00 0.00 81 1010.9
20260901101711 15 265 3.2 8.0 0.00 0.00 0.00 81 1011.0
20260901101216 15 244 3.2 8.0 0.00 0.00 0.00 81 1011.0
20260901101212 15 275 3.2 8.0 0.00 0.00 0.00 81 1011.0
20260901100210 15 236 3.2 9.7 0.00 0.00 0.00 81 1011.0
20260901095713 15 248 3.2 11.3 0.00 0.00 0.00 82 1010.9
20260901095708 15 258 3.2 9.7 0.00 0.00 0.00 81 1010.9
20260901095323 15 217 3.2 12.9 0.00 0.00 0.00 82 1011.0
20260901094708 15 232 3.2 11.3 0.00 0.00 0.00 82 1011.0
20260901093709 15 198 4.8 14.5 0.00 0.00 0.00 81 1011.0
20260901093209 15 255 4.8 14.5 0.00 0.00 0.00 82 1011.1
20260901092709 15 246 4.8 12.9 0.00 0.00 0.00 82 1011.0
20260901092208 15 312 4.8 12.9 0.00 0.00 0.00 82 1011.0
20260901091710 15 208 3.2 12.9 0.00 0.00 0.00 83 1010.9
20260901091207 15 236 3.2 12.9 0.00 0.00 0.00 83 1010.8
20260901090709 15 250 4.8 12.9 0.00 0.00 0.00 83 1010.8
20260901090207 15 227 4.8 12.9 0.00 0.00 0.00 83 1010.8
20260901085707 15 214 1.6 9.7 0.00 0.00 0.00 83 1010.8
20260901085206 15 248 3.2 11.3 0.00 0.00 0.00 83 1010.7
20260901084704 15 245 3.2 12.9 0.00 0.00 0.00 83 1010.6
20260901084206 15 223 3.2 12.9 0.00 0.00 0.00 83 1010.6
20260901083706 15 238 3.2 9.7 0.00 0.00 0.00 83 1010.6
20260901083205 15 235 3.2 14.5 0.00 0.00 0.00 83 1010.7
20260901082710 15 271 3.2 11.3 0.00 0.00 0.00 83 1010.8
20260901082706 15 284 4.8 14.5 0.00 0.00 0.00 83 1010.7
20260901081706 15 290 1.6 8.0 0.00 0.00 0.00 83 1010.8
20260901081206 15 238 3.2 12.9 0.00 0.00 0.00 83 1010.8
20260901080705 15 238 4.8 12.9 0.00 0.00 0.00 83 1010.8
20260901080203 15 227 4.8 12.9 0.00 0.00 0.00 83 1010.8
20260901075708 15 250 3.2 12.9 0.00 0.00 0.00 83 1010.7
20260901075704 15 250 4.8 12.9 0.00 0.00 0.00 83 1010.7
20260901074702 15 263 3.2 14.5 0.00 0.00 0.00 83 1010.6
20260901074200 15 227 3.2 14.5 0.00 0.00 0.00 83 1010.6
20260901073659 15 262 3.2 14.5 0.00 0.00 0.00 83 1010.6
20260901073200 15 211 4.8 14.5 0.00 0.00 0.00 83 1010.5
20260901072657 15 244 4.8 12.9 0.00 0.00 0.00 83 1010.5
20260901072158 15 221 4.8 11.3 0.00 0.00 0.00 83 1010.5
20260901071657 15 244 4.8 12.9 0.00 0.00 0.00 83 1010.4
20260901071202 15 241 3.2 11.3 0.00 0.00 0.00 83 1010.4
20260901071158 15 225 3.2 12.9 0.00 0.00 0.00 83 1010.5
20260901070155 15 264 4.8 11.3 0.00 0.00 0.00 83 1010.4
20260901065659 15 250 4.8 12.9 0.00 0.00 0.00 83 1010.3
20260901065655 15 225 4.8 12.9 0.00 0.00 0.00 83 1010.3
20260901065309 15 237 4.8 19.3 0.00 0.00 0.00 83 1010.3
20260901064155 15 251 6.4 19.3 0.00 0.00 0.00 83 1010.2
20260901063700 15 261 6.4 20.9 0.00 0.00 0.00 83 1010.1
20260901063656 15 234 8.0 20.9 0.00 0.00 0.00 83 1010.2
20260901062657 15 255 4.8 19.3 0.00 0.00 0.00 83 1010.2
20260901062152 15 243 3.2 14.5 0.00 0.00 0.00 83 1010.1
20260901061655 15 239 3.2 12.9 0.00 0.00 0.00 83 1010.2
20260901061153 15 236 3.2 12.9 0.00 0.00 0.00 83 1010.2
20260901060654 15 226 4.8 12.9 0.00 0.00 0.00 83 1010.2
20260901060153 15 224 4.8 16.1 0.00 0.00 0.00 83 1010.1
20260901055655 15 302 4.8 16.1 0.00 0.00 0.00 83 1010.0
20260901055153 15 229 3.2 11.3 0.00 0.00 0.00 83 1009.9
20260901054653 15 251 3.2 11.3 0.00 0.00 0.00 83 1009.8
20260901054154 15 250 4.8 16.1 0.00 0.00 0.00 83 1009.9
20260901053654 15 254 4.8 16.1 0.00 0.00 0.00 83 1009.9
20260901053152 15 213 4.8 12.9 0.00 0.00 0.00 83 1009.9
20260901052658 15 279 3.2 11.3 0.00 0.00 0.00 83 1009.9
20260901052652 15 261 4.8 12.9 0.00 0.00 0.00 83 1009.8
20260901052152 15 280 4.8 11.3 0.00 0.00 0.00 83 1009.9
20260901051806 15 259 4.8 11.3 0.00 0.00 0.00 83 1010.0
20260901050651 15 284 4.8 12.9 0.00 0.00 0.00 83 1009.8
20260901050151 15 280 3.2 19.3 0.00 0.00 0.00 83 1009.9